Вернуться в каталог

DMSP 5D-2 F13 DEB

АктивенSSO
NORAD 40581·DEBRIS·🇺🇸 United States

Запущен Mar 24, 1995 с Vandenberg Space Force Base

Loading…

Ближайшие Пролёты (ближайшие 24 часа)

TLE

СвежийSource: Space-Track

Эпоха: Sep 14, 2026, 01:24 UTC

1 40581U 95015EQ  26257.05899054  .00003000  00000-0  10122-2 0  9991
2 40581  98.7018 300.6125 0019104  34.4871 325.7551 14.37612595593448

Отслеживайте DMSP 5D-2 F13 DEB в реальном времени с AllMySat

Download on the App Store